Hlavní strana
METAR-TAF:

METAR-TAF

Letiště :

Carmi Municipal Airport

Carmi, Illinois, Spojené státy americké

zeměpisná šířka: 38-05-22N, zeměpisná délka: 088-07-23W, výška: 118 m

Aktuální stav počasí

Zpráva byla vytvořena před 25 minutami, v 12:52 UTC
Bezvětří
Teplota 3°C
Vlhkost vzduchu 100%
Tlak 1025 hPa
Viditelnost: 1.6 km
kouřmo

METAR: KCUL 191252Z AUTO 00000KT 1SM BR VV007 03/03 A3027 RMK AO2

Čas: 08:17 (13:17 UTC)


TAF: chybějící

Stav a předpovědi počasí z více než 4 000 letišť (zprávy METAR a TAF).

Červené a žluté tečky na mapě představují dostupné meteorologické stanice.

Když kurzor umístíte na tečku, zobrazí se název stanice.

Pak kliknutím zobrazíte stav a předpověď počasí.

Chcete-li změnit mapu, kliknutím na zelené tlačítko se znaménkem +mapu přiblížíte, kliknutím na zelené tlačítko se znaménkem – mapu oddálíte a kliknutím na zelené šipky přejdete na sousední mapy.


METAR-TAF: